Saguache, CO

1:17 AM MDT on April 20, 2018 (GMT -0600)
Saguache

Weather History for K04V - July, 2013

Change the Weather History Date:

Wednesday, July 3, 2013

  Actual Average (KALS) Record (KALS)
Temperature  
Mean Temperature 60 °F -  
Max Temperature 78 °F 83 °F 92 °F (1989)
Min Temperature 42 °F 45 °F 34 °F (1992)
Degree Days  
Heating Degree Days 5    
Growing Degree Days 10 (Base 50)    
Moisture  
Dew Point 40 °F    
Average Humidity 52    
Maximum Humidity 87    
Minimum Humidity 16    
Precipitation  
Precipitation 0.00 in - - ()
Sea Level Pressure  
Sea Level Pressure 30.29 in    
Wind  
Wind Speed 4 mph (SW)    
Max Wind Speed 20 mph    
Max Gust Speed 30 mph    
Visibility 10 miles    
Events Thunderstorm    
Averages and records for this station are not official NWS values.
T = Trace of Precipitation, MM = Missing Value Source: NWS Daily Summary

Daily Weather History Graph

Daily Weather History Graph

Search for Another Location

Airport or City:

Astronomy

Jul. 03, 2013 Rise Set
Actual Time 5:46 AM MDT 8:31 PM MDT
Civil Twilight 5:15 AM MDT 9:02 PM MDT
Nautical Twilight 4:36 AM MDT 9:41 PM MDT
Astronomical Twilight 3:51 AM MDT 10:25 PM MDT
Moon 2:24 AM MDT (7/3) 4:45 PM MDT (7/3)
Length of Visible Light 15h 47m
Length of Day
14h 44m
Waning Crescent, 18% of the Moon is Illuminated
Jul 3
Waning Crescent
Jul 8
New
Jul 15
First Quarter
Jul 22
Full
Jul 29
Last Quarter

Hourly Weather History & Observations

Time (MDT) Temp. Windchill Dew Point Humidity Pressure Visibility Wind Dir Wind Speed Gust Speed Precip Events Conditions
12:14 AM 51.8 °F - 42.8 °F 71% 30.34 in 10.0 mi Calm Calm - N/A   Clear
12:34 AM 51.8 °F - 42.8 °F 71% 30.35 in 10.0 mi Calm Calm - N/A   Clear
12:54 AM 50.0 °F - 42.8 °F 76% 30.35 in 10.0 mi East 4.6 mph - N/A   Clear
1:13 AM 50.0 °F - 42.8 °F 76% 30.35 in 10.0 mi South 3.5 mph - N/A   Clear
1:34 AM 48.2 °F - 42.8 °F 82% 30.35 in 10.0 mi Calm Calm - N/A   Clear
1:53 AM 46.4 °F 43.5 °F 41.0 °F 81% 30.35 in 10.0 mi WNW 5.8 mph - N/A   Clear
2:14 AM 46.4 °F 42.9 °F 41.0 °F 81% 30.35 in 10.0 mi NW 6.9 mph - N/A   Clear
2:34 AM 46.4 °F 42.9 °F 41.0 °F 81% 30.35 in 10.0 mi NW 6.9 mph - N/A   Scattered Clouds
2:54 AM 46.4 °F 43.5 °F 39.2 °F 76% 30.35 in 10.0 mi NNW 5.8 mph - N/A   Scattered Clouds
3:14 AM 46.4 °F 44.3 °F 41.0 °F 81% 30.34 in 10.0 mi North 4.6 mph - N/A   Clear
3:34 AM 44.6 °F - 41.0 °F 87% 30.34 in 10.0 mi Calm Calm - N/A   Clear
3:54 AM 44.6 °F - 41.0 °F 87% 30.34 in 10.0 mi Calm Calm - N/A   Clear
4:14 AM 44.6 °F - 41.0 °F 87% 30.34 in 10.0 mi Calm Calm - N/A   Clear
4:34 AM 44.6 °F - 39.2 °F 81% 30.34 in 10.0 mi Calm Calm - N/A   Clear
4:54 AM 42.8 °F - 39.2 °F 87% 30.35 in 10.0 mi Calm Calm - N/A   Clear
5:14 AM 42.8 °F 39.3 °F 39.2 °F 87% 30.35 in 10.0 mi NNW 5.8 mph - N/A   Clear
5:33 AM 42.8 °F 38.6 °F 39.2 °F 87% 30.35 in 10.0 mi NNW 6.9 mph - N/A   Clear
5:54 AM 42.8 °F 37.5 °F 39.2 °F 87% 30.34 in 10.0 mi North 9.2 mph - N/A   Clear
6:14 AM 44.6 °F 42.2 °F 39.2 °F 81% 30.35 in 10.0 mi NNW 4.6 mph - N/A   Clear
6:34 AM 44.6 °F 39.2 °F 39.2 °F 81% 30.35 in 10.0 mi NNW 10.4 mph - N/A   Clear
6:53 AM 50.0 °F - 39.2 °F 66% 30.35 in 10.0 mi NW 9.2 mph - N/A   Clear
7:14 AM 48.2 °F - 39.2 °F 71% 30.36 in 10.0 mi WNW 4.6 mph - N/A   Clear
7:34 AM 53.6 °F - 41.0 °F 62% 30.36 in 10.0 mi NW 6.9 mph - N/A   Scattered Clouds
7:54 AM 55.4 °F - 41.0 °F 58% 30.36 in 10.0 mi NW 5.8 mph - N/A   Scattered Clouds
8:14 AM 55.4 °F - 44.6 °F 67% 30.36 in 10.0 mi Calm Calm - N/A   Clear
8:34 AM 57.2 °F - 44.6 °F 63% 30.36 in 10.0 mi South 3.5 mph - N/A   Clear
8:54 AM 57.2 °F - 44.6 °F 63% 30.35 in 10.0 mi South 4.6 mph - N/A   Clear
9:14 AM 59.0 °F - 46.4 °F 63% 30.35 in 10.0 mi SW 4.6 mph - N/A   Clear
9:34 AM 59.0 °F - 46.4 °F 63% 30.34 in 10.0 mi Calm Calm - N/A   Clear
9:54 AM 60.8 °F - 46.4 °F 59% 30.33 in 10.0 mi SSE 3.5 mph - N/A   Clear
10:14 AM 62.6 °F - 46.4 °F 55% 30.33 in 10.0 mi Calm Calm - N/A   Clear
10:34 AM 62.6 °F - 46.4 °F 55% 30.31 in 10.0 mi SW 4.6 mph - N/A   Clear
10:53 AM 64.4 °F - 46.4 °F 52% 30.31 in 10.0 mi Calm Calm - N/A   Clear
11:14 AM 66.2 °F - 44.6 °F 46% 30.29 in 10.0 mi Calm Calm - N/A   Clear
11:34 AM 68.0 °F - 44.6 °F 43% 30.29 in 10.0 mi South 5.8 mph - N/A   Clear
11:54 AM 69.8 °F - 44.6 °F 40% 30.28 in 10.0 mi SSE 9.2 mph - N/A   Clear
12:13 PM 71.6 °F - 42.8 °F 35% 30.27 in 10.0 mi SSE 6.9 mph - N/A   Scattered Clouds
12:34 PM 73.4 °F - 41.0 °F 31% 30.26 in 10.0 mi South 4.6 mph - N/A   Scattered Clouds
12:54 PM 73.4 °F - 39.2 °F 29% 30.25 in 10.0 mi WSW 6.9 mph - N/A   Clear
1:14 PM 73.4 °F - 39.2 °F 29% 30.24 in 10.0 mi SE 6.9 mph - N/A   Clear
1:34 PM 75.2 °F - 39.2 °F 27% 30.22 in 10.0 mi SSW 6.9 mph - N/A   Clear
1:54 PM 77.0 °F - 39.2 °F 26% 30.22 in 10.0 mi West 8.1 mph - N/A   Scattered Clouds
2:14 PM 75.2 °F - 37.4 °F 25% 30.21 in 10.0 mi WNW 8.1 mph 16.1 mph N/A   Scattered Clouds
2:33 PM 73.4 °F - 35.6 °F 25% 30.21 in 10.0 mi NNE 9.2 mph - N/A Thunderstorm Scattered Clouds
2:54 PM 78.8 °F - 28.4 °F 16% 30.19 in 10.0 mi NNE 10.4 mph 23.0 mph N/A   Scattered Clouds
3:14 PM 75.2 °F - 39.2 °F 27% 30.21 in 10.0 mi ESE 15.0 mph 20.7 mph N/A   Mostly Cloudy
3:34 PM 73.4 °F - 39.2 °F 29% 30.23 in 10.0 mi ESE 15.0 mph 23.0 mph N/A   Mostly Cloudy
3:54 PM 75.2 °F - 37.4 °F 25% 30.22 in 10.0 mi ESE 19.6 mph 25.3 mph N/A   Mostly Cloudy
4:14 PM 73.4 °F - 37.4 °F 27% 30.23 in 10.0 mi ESE 17.3 mph 21.9 mph N/A   Scattered Clouds
4:34 PM 73.4 °F - 37.4 °F 27% 30.22 in 10.0 mi SSE 10.4 mph - N/A   Scattered Clouds
4:54 PM 71.6 °F - 35.6 °F 27% 30.21 in 10.0 mi SSE 10.4 mph - N/A   Scattered Clouds
5:13 PM 71.6 °F - 35.6 °F 27% 30.22 in 10.0 mi SE 5.8 mph 9.2 mph N/A   Mostly Cloudy
5:33 PM 71.6 °F - 37.4 °F 29% 30.22 in 10.0 mi SSE 4.6 mph - N/A   Mostly Cloudy
5:54 PM 71.6 °F - 37.4 °F 29% 30.21 in 10.0 mi South 4.6 mph - N/A   Mostly Cloudy
6:14 PM 71.6 °F - 35.6 °F 27% 30.21 in 10.0 mi Calm Calm - N/A   Clear
6:34 PM 69.8 °F - 35.6 °F 28% 30.21 in 10.0 mi SSE 4.6 mph - N/A   Clear
6:53 PM 69.8 °F - 39.2 °F 33% 30.21 in 10.0 mi Calm Calm - N/A   Clear
7:14 PM 69.8 °F - 37.4 °F 31% 30.21 in 10.0 mi SSE 3.5 mph - N/A   Clear
7:34 PM 69.8 °F - 37.4 °F 31% 30.22 in 10.0 mi Calm Calm - N/A   Clear
7:53 PM 69.8 °F - 37.4 °F 31% 30.23 in 10.0 mi NNW 9.2 mph - N/A   Clear
8:14 PM 68.0 °F - 37.4 °F 33% 30.23 in 10.0 mi Calm Calm - N/A   Clear
8:34 PM 68.0 °F - 37.4 °F 33% 30.24 in 10.0 mi Calm Calm - N/A   Mostly Cloudy
8:54 PM 64.4 °F - 39.2 °F 40% 30.26 in 10.0 mi ESE 17.3 mph 29.9 mph N/A   Overcast
9:14 PM 62.6 °F - 39.2 °F 42% 30.26 in 10.0 mi East 9.2 mph - N/A   Mostly Cloudy
9:34 PM 62.6 °F - 39.2 °F 42% 30.26 in 10.0 mi SE 8.1 mph - N/A   Mostly Cloudy
9:54 PM 62.6 °F - 39.2 °F 42% 30.27 in 10.0 mi SSE 8.1 mph - N/A   Scattered Clouds
10:14 PM 60.8 °F - 39.2 °F 45% 30.28 in 10.0 mi West 5.8 mph - N/A   Clear
10:34 PM 59.0 °F - 41.0 °F 51% 30.28 in 10.0 mi WSW 4.6 mph - N/A   Clear
10:54 PM 59.0 °F - 41.0 °F 51% 30.28 in 10.0 mi WNW 5.8 mph - N/A   Clear
11:13 PM 59.0 °F - 39.2 °F 48% 30.26 in 10.0 mi NW 11.5 mph - N/A   Scattered Clouds
11:34 PM 59.0 °F - 39.2 °F 48% 30.26 in 10.0 mi NNW 6.9 mph - N/A   Scattered Clouds
11:54 PM 57.2 °F - 39.2 °F 51% 30.26 in 10.0 mi North 8.1 mph - N/A   Clear